Regional Weather Roundup
Issued by NWS

Home | Current Version | Previous Version | Graphics & Text | Print | Product List | Glossary On
Versions: 1 2 3 4 5 6 7 8 9 10 11 12 13 14 15 16 17 18 19 20 21 22 23 24 25 26 27 28 29 30 31 32 33 34 35 36 37 38 39 40 41 42 43 44 45 46 47 48 49 50
000
ASUS43 KTOP 231659
RWRKS

WEATHER ROUNDUP FOR KANSAS
NATIONAL WEATHER SERVICE GOODLAND KS
1100 AM CST MON JAN 23 2017

NOTE:  "FAIR" INDICATES FEW OR NO CLOUDS BELOW 12,000 FEET WITH NO
SIGNIFICANT WEATHER AND/OR OBSTRUCTIONS TO VISIBILITY.

KSZ001>006-013>018-027>032-041>047-231800-
NORTHWEST KANSAS

CITY           SKY/WX    TMP DP  RH WIND       PRES   REMARKS
GOODLAND       SUNNY     41  27  57 S23G29    29.66R
HAYS           SUNNY     43  31  62 S10       29.81F
HILL CITY      SUNNY     46  31  55 S14       29.77F
RUSSELL        SUNNY     46  30  53 S17       29.81F
$$

KSZ061>065-074>080-084>089-231800-
SOUTHWEST KANSAS

CITY           SKY/WX    TMP DP  RH WIND       PRES   REMARKS
DODGE CITY     SUNNY     46  33  60 S18G26    29.78F
ELKHART          N/A    N/A N/A N/A MISG        N/A
GARDEN CITY    SUNNY     42  30  62 S20       29.74F
GREAT BEND     SUNNY     43  32  65 S17       29.84F
LIBERAL          N/A     43  32  65 SW14      29.77S
$$

KSZ066>073-081>083-090>101-231800-
SOUTHEAST KANSAS

CITY           SKY/WX    TMP DP  RH WIND       PRES   REMARKS
CHANUTE        SUNNY     42  34  73 SW3       29.93S
COFFEYVILLE    SUNNY     42  36  79 CALM      29.95R
HUTCHINSON     MOSUNNY   44  32  62 S13       29.88F
MEDICINE LODGE   N/A     41  30  65 S13G20    29.88F
NEWTON         SUNNY     42  34  73 S12       29.90F
PARSONS        SUNNY     43  35  73 CALM      29.94S
WICHITA INTL   PTSUNNY   43  34  70 S10       29.91F
WICHITA JABRA  SUNNY     42  33  70 S10       29.90F
WINFIELD       SUNNY     45  36  70 SW7       29.94S
$$

KSZ007>012-019>026-033>040-048>060-102>105-231800-
NORTHEAST KANSAS

CITY           SKY/WX    TMP DP  RH WIND       PRES   REMARKS
CONCORDIA      SUNNY     39  34  82 E5        29.86S
EMPORIA        SUNNY     44  35  70 SW7       29.92R
LAWRENCE       FOG       32  32 100 NW3       29.94R VSB 1/4
MANHATTAN      SUNNY     40  35  83 CALM      29.91R
OLATHE IND     FOG       32  32 100 NW6       29.92S VSB 1/4
OLATHE EXE     CLOUDY    31  31 100 NW3       29.91R FOG
SALINA         SUNNY     37  30  75 SE3       29.90S
TOPEKA BILLARD FOG       32  30  92 CALM      29.94R VSB 1/4
TOPEKA FORBES  FOG       32  31  96 NE3       29.92R VSB 1/4
$$




USA.gov is the U.S. government's official web portal to all federal, state and local government web resources and services.